This is the latest recevied weather packets stored in our database for station/object IK2ILW-4. If no packets are shown the sender has not sent any weather packets the latest 10 day(s).
| Time | Temp. | Humidity | Pressure | Rain* | Wind** | Luminosity | Snow |
|---|---|---|---|---|---|---|---|
| 1787948568 | 17.22° C | 88% | 1019.6 hPa | 2.03 mm | - | 0 W/m² | - |
| 1787948275 | 17.22° C | 87% | 1019.6 hPa | 2.03 mm | - | 0 W/m² | - |
| 1787947962 | 17.78° C | 84% | 1019.5 hPa | 2.03 mm | - | 0 W/m² | - |
| 1787947661 | 17.78° C | 86% | 1019.5 hPa | 2.03 mm | - | 0 W/m² | - |
| 1787947359 | 17.22° C | 87% | 1019.5 hPa | 2.03 mm | - | 0 W/m² | - |
| 1787947054 | 17.22° C | 89% | 1019.9 hPa | 2.03 mm | - | 0 W/m² | - |
| 1787946766 | 17.22° C | 87% | 1019.9 hPa | 2.03 mm | - | 0 W/m² | - |
| 1787946456 | 17.22° C | 86% | 1019.9 hPa | 2.03 mm | - | 0 W/m² | - |
| 1787946172 | 17.22° C | 88% | 1020 hPa | 2.03 mm | - | 0 W/m² | - |
| 1787945862 | 17.22° C | 87% | 1020 hPa | 2.03 mm | - | 0 W/m² | - |
| 1787945572 | 17.22° C | 87% | 1020 hPa | 2.03 mm | - | 0 W/m² | - |
| 1787945269 | 17.22° C | 88% | 1020 hPa | 2.03 mm | - | 0 W/m² | - |
| 1787944963 | 17.22° C | 89% | 1020 hPa | 2.03 mm | - | 0 W/m² | - |
| 1787944670 | 17.22° C | 89% | 1020 hPa | 2.03 mm | - | 0 W/m² | - |
| 1787944370 | 17.22° C | 90% | 1020.3 hPa | 2.03 mm | - | 0 W/m² | - |
| 1787944058 | 17.22° C | 90% | 1020.3 hPa | 2.03 mm | - | 0 W/m² | - |
| 1787943768 | 16.67° C | 90% | 1020.3 hPa | 2.03 mm | - | 0 W/m² | - |
| 1787943455 | 16.67° C | 92% | 1020.3 hPa | 2.03 mm | - | 0 W/m² | - |
| 1787943169 | 16.67° C | 92% | 1020.3 hPa | 2.03 mm | - | 0 W/m² | - |
| 1787942858 | 16.67° C | 92% | 1020.3 hPa | 2.03 mm | - | 0 W/m² | - |
| 1787942645 | 16.67° C | 92% | 1020.3 hPa | 2.03 mm | - | 0 W/m² | - |
| 1787942270 | 16.67° C | 91% | 1020.3 hPa | 2.03 mm | - | 0 W/m² | - |
| 1787941956 | 16.67° C | 90% | 1020.3 hPa | 2.03 mm | - | 0 W/m² | - |
| 1787941670 | 16.67° C | 89% | 1020.5 hPa | 2.03 mm | - | 0 W/m² | - |
| 1787941361 | 17.22° C | 90% | 1020.5 hPa | 2.03 mm | - | 0 W/m² | - |
* Rain since midnight (hover to see other rain measurements)
** Current wind speed in m/s (hover to see current wind gust speed)